Location: Fuglau
(48.6333°N, 15.5500°E)
Time: 00:06:46
(UTC+00:00)

Okean 3 - Pass Details

Date: 27 February 2020
Orbit: 576 x 602 km, 82.5° (Epoch: 09 April)

Event Time Altitude Azimuth Distance (km) Brightness Sun altitude
Rises 17:48:54 0° 358° (N) 2,828 7.0 -12.6°
Reaches altitude 10° 17:51:20 10° 10° (N) 1,918 6.0 -13.0°
Maximum altitude 17:55:04 30° 72° (ENE) 1,067 4.3 -13.6°
Enters shadow 17:56:58 21° 115° (ESE) 1,337 4.7 -13.9°
